Simultaneous Nadir Overpasses (SNOs) Predictions

Prediction of SNOs between GOES-16 and NOAA-20 Satellite Orbit:

Table of predicted SNOs for the next 14.0 days since TLE Epoch: 10/7/2023
Index Date Time (GOES-16) GOES-16 Lat,Lon NOAA-20 Lat,Lon Distance(km) Time Diff (sec)
1 10/07/2023 18:10:58 -0.04, -75.22 0.88, -71.23 455.81 80
2 10/09/2023 06:32:44 0.03, -75.21 0.30, -76.49 144.78 80
3 10/10/2023 06:11:17 0.03, -75.22 -0.70, -71.95 372.89 80
4 10/11/2023 18:33:11 -0.02, -75.25 -0.48, -77.25 227.98 80
5 10/12/2023 18:17:05 -0.02, -75.26 0.52, -72.71 290.38 80
6 10/14/2023 06:38:50 0.02, -75.27 0.64, -77.97 308.38 80
7 10/15/2023 06:17:24 0.02, -75.28 -0.36, -73.43 210.19 80
8 10/16/2023 18:39:18 -0.02, -75.31 -0.79, -78.73 389.94 80
9 10/17/2023 18:23:12 -0.02, -75.32 0.22, -74.19 128.81 80
10 10/19/2023 06:44:57 0.02, -75.34 0.93, -79.46 469.42 80
11 10/20/2023 06:23:30 0.02, -75.35 -0.08, -74.92 49.12 80
